Abu Musa Airport

Airport
ICAO code: 
OIBA
IATA Code: 
AEU
Summary
ICAO Region: 
APAC
Territory: 
Location: 
Abu Musa Island, Hormozgan
Serving: 
Abu Musa
Elevation: 
23 ft
Coordinates: 
Aerial View: 
25° 52' 33.424" N, 55° 1' 57.835" E
Metar
Observation
OIBA 030700Z 27006KT 4000 HZ NSC 36/28 Q0993
Station
Abumusa Island / Abumusa
Date/Time
2022-07-03 07:00:00
Wind direction
270°
Wind speed
06 kts
Lowest cloud amount
nil significant cloud
Temperature
36°C
Dew point
28°C
Humidity
63%
QNH
993 hPa
Weather condition
n/a

Abu Musa Airport or Abumusa Airport is an airport serving Abu Musa Island, in the Hormozgan Province in Iran.

Climatology

Hot desert climate (Köppen climate classification BWh).

Runways

Designator Length Width Surface Rops
8/26 2986 45 ASP No/No
Airport map: 
Aerial View: 

SKYbrary Partners:

Safety knowledge contributed by: